Voltar ao catálogo

STARLINK-34303

AtivoComunicaçõesSSO
NORAD 64168·PAYLOAD·🇺🇸 United States

Lançado May 27, 2025 de Vandenberg Space Force Base

Loading…

Próximas Passagens (próximas 24 horas)

TLE

AtualizadoSource: CelesTrak SupGP

Época: Sep 15, 2026, 03:03 UTC

1 64168C 25112Y   26258.12756944  .00023759  00000+0  73750-3 0  2585
2 64168  97.2842 305.2464 0001601  86.5116 229.8235 15.33428316    16

Acompanhe STARLINK-34303 em tempo real com AllMySat

Download on the App Store